Notices

What's New in latest Release from April 7th, 2021:

- Updated Glossary, including Speed of Maximum Gust, and Total Hourly Precipitation

- Updated national and regional climate services offices contacts and prices information

- Addition of station inventory lists for 1981-2010, 1971-2000, and 1961-1990 Normals.

If you haven't already, please take our survey and provide feedback about our website: https://eccc.sondage-survey.ca/f/LanguageSelection.aspx?s=442ca660-fcf1-47c0-95a9-59707d6fd709

Hourly Data Report for April 19, 2021

CORNER BROOK
NEWFOUNDLAND
Current Station Operator: ECCC - MSC

48°56'00.000" N
57°55'00.000" W
151.80 m
8401298
71973
WKB

Download Data

Hourly Data (April 2021)
Hourly Data Report for April 19, 2021
TIME
LST
Temp Definition
°C
Dew Point Definition
°C
Rel Hum Definition
%
Precip. Amount Definition
mm

Wind Dir Definition
10's deg

Wind Spd Definition
km/h
Visibility Definition
km
Stn Press Definition
kPa
Hmdx Definition


Wind Chill Definition


Weather Definition


00:30 2.0 1.1 93 0.6 6 15   98.05     LegendNANA
01:30 1.9 1.0 93 0.0 5 13   98.02     LegendNANA
02:30 1.9 1.0 94 0.0 7 10   97.97     LegendNANA
03:30 1.9 1.0 94 0.0 8 12   97.97     LegendNANA
04:30 1.9 1.0 94 0.0 8 10   97.94     LegendNANA
05:30 1.8 0.8 93 0.0 7 11   97.92     LegendNANA
06:30 1.9 1.0 94 0.0 7 8   97.94     LegendNANA
07:30 2.3 1.3 93 0.0 6 12   97.92     LegendNANA
08:30 3.3 2.1 92 0.0 7 3   97.92     LegendNANA
09:30 3.3 2.0 91 0.0 8 9   97.94     LegendNANA
10:30 3.9 2.4 90 1.6 4 6   97.90     LegendNANA
11:30 4.7 3.1 89 0.6 29 4   97.88     LegendNANA
12:30 5.0 3.5 90 0.8 34 5   97.84     LegendNANA
13:30 5.3 3.8 90 0.0 30 13   97.79     LegendNANA
14:30 4.2 2.7 90 0.8 28 13   97.80     LegendNANA
15:30 3.9 2.7 92 0.0 29 11   97.80     LegendNANA
16:30 4.8 3.7 93 0.8 31 7   97.82     LegendNANA
17:30 4.0 2.8 92 1.0 7 18   97.88     LegendNANA
18:30 3.3 2.1 92 0.0 6 7   97.99     LegendNANA
19:30 2.8 1.6 92 0.0 7 11   98.07     LegendNANA
20:30 2.5 1.4 93 0.0 6 9   98.19     LegendNANA
21:30 2.4 1.4 93 0.0 5 9   98.30     LegendNANA
22:30 2.5 1.4 93 0.0 5 11   98.36     LegendNANA
23:30 2.5 1.5 93 0.0 5 6   98.39     LegendNANA

Notes on Data Quality.

Legend

  • E = Estimated
  • M = Missing
  • NA = Not Available*
  • [empty] = Indicates an unobserved value
Date modified: